Time,TemperatureF,DewpointF,PressureIn,WindDirection,WindDirectionDegrees,WindSpeedMPH,WindSpeedGustMPH,Humidity,HourlyPrecipIn,Conditions,Clouds,dailyrainin,SoftwareType,DateUTC
2013-03-26 00:03:00,30.0,27.0,29.70,NNW,342,0.0,-999.0,89,-99.99,,,-99.99,,2013-03-26 04:03:00,
2013-03-26 00:12:00,30.0,27.0,29.70,NNW,342,0.0,-999.0,89,-99.99,,,-99.99,,2013-03-26 04:12:00,
2013-03-26 00:23:00,29.0,26.0,29.70,NNW,335,0.0,-999.0,89,-99.99,,,-99.99,,2013-03-26 04:23:00,
2013-03-26 00:33:00,29.0,26.0,29.71,NW,312,0.0,-999.0,89,-99.99,,,-99.99,,2013-03-26 04:33:00,
2013-03-26 00:43:00,29.0,26.0,29.71,NW,312,0.0,-999.0,89,-99.99,,,-99.99,,2013-03-26 04:43:00,
2013-03-26 00:52:00,29.0,26.0,29.71,NW,312,0.0,-999.0,89,-99.99,,,-99.99,,2013-03-26 04:52:00,
2013-03-26 01:02:00,28.0,25.0,29.72,NW,312,0.0,-999.0,89,-99.99,,,-99.99,,2013-03-26 05:02:00,
2013-03-26 01:12:00,28.0,25.0,29.72,NW,312,0.0,-999.0,89,-99.99,,,-99.99,,2013-03-26 05:12:00,
2013-03-26 01:22:00,28.0,25.0,29.72,NW,312,0.0,-999.0,90,-99.99,,,-99.99,,2013-03-26 05:22:00,
2013-03-26 01:32:00,28.0,25.0,29.72,NW,312,0.0,-999.0,90,-99.99,,,-99.99,,2013-03-26 05:32:00,
2013-03-26 01:42:00,28.0,25.0,29.72,NW,312,0.0,-999.0,90,-99.99,,,-99.99,,2013-03-26 05:42:00,
2013-03-26 01:52:00,29.0,27.0,29.73,NW,320,0.0,-999.0,91,-99.99,,,-99.99,,2013-03-26 05:52:00,
2013-03-26 02:02:00,29.0,27.0,29.73,NW,320,0.0,-999.0,91,-99.99,,,-99.99,,2013-03-26 06:02:00,
2013-03-26 02:12:00,29.0,27.0,29.73,NW,320,0.0,-999.0,91,-99.99,,,-99.99,,2013-03-26 06:12:00,
2013-03-26 02:22:00,29.0,26.0,29.73,NW,323,0.0,-999.0,90,-99.99,,,-99.99,,2013-03-26 06:22:00,
2013-03-26 02:32:00,29.0,27.0,29.74,NW,320,0.0,-999.0,91,-99.99,,,-99.99,,2013-03-26 06:32:00,
2013-03-26 02:42:00,29.0,27.0,29.74,NW,320,0.0,-999.0,91,-99.99,,,-99.99,,2013-03-26 06:42:00,
2013-03-26 02:52:00,29.0,26.0,29.74,NW,319,0.0,-999.0,90,-99.99,,,-99.99,,2013-03-26 06:52:00,
2013-03-26 03:02:00,29.0,26.0,29.74,NW,311,0.0,-999.0,90,-99.99,,,-99.99,,2013-03-26 07:02:00,
2013-03-26 03:12:00,29.0,26.0,29.74,NW,311,0.0,-999.0,90,-99.99,,,-99.99,,2013-03-26 07:12:00,
2013-03-26 03:22:00,29.0,26.0,29.74,NW,311,0.0,-999.0,90,-99.99,,,-99.99,,2013-03-26 07:22:00,
2013-03-26 03:33:00,29.0,26.0,29.75,NW,311,0.0,-999.0,90,-99.99,,,-99.99,,2013-03-26 07:33:00,
2013-03-26 03:42:00,29.0,26.0,29.75,NW,311,0.0,-999.0,90,-99.99,,,-99.99,,2013-03-26 07:42:00,
2013-03-26 03:52:00,29.0,26.0,29.74,NW,311,0.0,-999.0,90,-99.99,,,-99.99,,2013-03-26 07:52:00,
2013-03-26 04:02:00,29.0,26.0,29.74,NW,311,0.0,-999.0,90,-99.99,,,-99.99,,2013-03-26 08:02:00,
2013-03-26 04:12:00,29.0,26.0,29.74,NW,311,0.0,-999.0,90,-99.99,,,-99.99,,2013-03-26 08:12:00,
2013-03-26 04:22:00,29.0,26.0,29.74,NW,311,0.0,-999.0,90,-99.99,,,-99.99,,2013-03-26 08:22:00,
2013-03-26 04:32:00,29.0,26.0,29.75,NW,311,0.0,-999.0,90,-99.99,,,-99.99,,2013-03-26 08:32:00,
2013-03-26 04:42:00,29.0,26.0,29.75,NW,311,0.0,-999.0,90,-99.99,,,-99.99,,2013-03-26 08:42:00,
2013-03-26 04:52:00,29.0,27.0,29.75,NW,311,0.0,-999.0,91,-99.99,,,-99.99,,2013-03-26 08:52:00,
2013-03-26 05:02:00,29.0,26.0,29.75,NW,309,0.0,-999.0,90,-99.99,,,-99.99,,2013-03-26 09:02:00,
2013-03-26 05:12:00,29.0,26.0,29.75,NW,309,0.0,-999.0,90,-99.99,,,-99.99,,2013-03-26 09:12:00,
2013-03-26 05:22:00,29.0,26.0,29.76,NW,309,0.0,-999.0,90,-99.99,,,-99.99,,2013-03-26 09:22:00,
2013-03-26 05:33:00,29.0,26.0,29.76,WSW,243,0.0,-999.0,90,-99.99,,,-99.99,,2013-03-26 09:33:00,
2013-03-26 05:43:00,29.0,26.0,29.76,WSW,243,0.0,-999.0,90,-99.99,,,-99.99,,2013-03-26 09:43:00,
2013-03-26 05:52:00,29.0,26.0,29.77,WSW,243,0.0,-999.0,90,-99.99,,,-99.99,,2013-03-26 09:52:00,
2013-03-26 06:03:00,29.0,26.0,29.76,WSW,243,0.0,-999.0,90,-99.99,,,-99.99,,2013-03-26 10:03:00,
2013-03-26 06:12:00,29.0,26.0,29.76,WSW,243,0.0,-999.0,90,-99.99,,,-99.99,,2013-03-26 10:12:00,
2013-03-26 06:22:00,29.0,26.0,29.77,WSW,243,0.0,-999.0,89,-99.99,,,-99.99,,2013-03-26 10:22:00,
2013-03-26 06:33:00,29.0,26.0,29.77,WSW,243,0.0,-999.0,89,-99.99,,,-99.99,,2013-03-26 10:33:00,
2013-03-26 06:42:00,29.0,26.0,29.77,WSW,243,0.0,-999.0,89,-99.99,,,-99.99,,2013-03-26 10:42:00,
2013-03-26 06:52:00,29.0,26.0,29.78,WSW,243,0.0,-999.0,89,-99.99,,,-99.99,,2013-03-26 10:52:00,
2013-03-26 07:03:00,29.0,26.0,29.78,WSW,243,0.0,-999.0,89,-99.99,,,-99.99,,2013-03-26 11:03:00,
2013-03-26 07:12:00,29.0,26.0,29.78,WSW,243,0.0,-999.0,89,-99.99,,,-99.99,,2013-03-26 11:12:00,
2013-03-26 07:22:00,29.0,26.0,29.79,WSW,243,0.0,-999.0,89,-99.99,,,-99.99,,2013-03-26 11:22:00,
2013-03-26 07:32:00,29.0,26.0,29.79,WSW,243,0.0,-999.0,89,-99.99,,,-99.99,,2013-03-26 11:32:00,
2013-03-26 07:42:00,29.0,26.0,29.79,WSW,243,0.0,-999.0,89,-99.99,,,-99.99,,2013-03-26 11:42:00,
2013-03-26 07:52:00,29.0,26.0,29.80,WSW,243,0.0,-999.0,89,-99.99,,,-99.99,,2013-03-26 11:52:00,
2013-03-26 08:03:00,29.0,26.0,29.80,WSW,243,0.0,-999.0,89,-99.99,,,-99.99,,2013-03-26 12:03:00,
2013-03-26 08:12:00,29.0,26.0,29.80,WSW,243,0.0,-999.0,89,-99.99,,,-99.99,,2013-03-26 12:12:00,
2013-03-26 08:22:00,29.0,26.0,29.81,WSW,243,0.0,-999.0,89,-99.99,,,-99.99,,2013-03-26 12:22:00,
2013-03-26 08:32:00,30.0,27.0,29.82,WSW,243,0.0,-999.0,89,-99.99,,,-99.99,,2013-03-26 12:32:00,
2013-03-26 08:42:00,30.0,27.0,29.82,WSW,243,0.0,-999.0,89,-99.99,,,-99.99,,2013-03-26 12:42:00,
2013-03-26 08:52:00,30.0,27.0,29.83,WSW,243,0.0,-999.0,89,-99.99,,,-99.99,,2013-03-26 12:52:00,
2013-03-26 09:03:00,31.0,28.0,29.83,WSW,243,0.0,-999.0,89,-99.99,,,-99.99,,2013-03-26 13:03:00,
2013-03-26 09:12:00,31.0,28.0,29.83,WSW,243,0.0,-999.0,89,-99.99,,,-99.99,,2013-03-26 13:12:00,
2013-03-26 09:22:00,31.0,28.0,29.83,WSW,243,0.0,-999.0,89,-99.99,,,-99.99,,2013-03-26 13:22:00,
2013-03-26 09:32:00,31.0,28.0,29.84,SW,234,0.0,-999.0,88,-99.99,,,-99.99,,2013-03-26 13:32:00,
2013-03-26 09:42:00,31.0,28.0,29.84,SW,234,0.0,-999.0,88,-99.99,,,-99.99,,2013-03-26 13:42:00,
2013-03-26 09:52:00,32.0,29.0,29.84,West,265,1.0,-999.0,88,-99.99,,,-99.99,,2013-03-26 13:52:00,
2013-03-26 10:02:00,32.0,29.0,29.84,West,265,1.0,-999.0,87,-99.99,,,-99.99,,2013-03-26 14:02:00,
2013-03-26 10:12:00,32.0,29.0,29.84,West,265,1.0,-999.0,87,-99.99,,,-99.99,,2013-03-26 14:12:00,
2013-03-26 10:22:00,33.0,29.0,29.85,West,260,1.0,-999.0,86,-99.99,,,-99.99,,2013-03-26 14:22:00,
2013-03-26 10:33:00,34.0,30.0,29.85,West,278,1.0,-999.0,85,-99.99,,,-99.99,,2013-03-26 14:33:00,
2013-03-26 10:42:00,34.0,30.0,29.85,West,278,1.0,-999.0,85,-99.99,,,-99.99,,2013-03-26 14:42:00,
2013-03-26 10:52:00,34.0,29.0,29.84,West,265,2.0,-999.0,83,-99.99,,,-99.99,,2013-03-26 14:52:00,
2013-03-26 11:02:00,35.0,30.0,29.84,SSW,208,2.0,-999.0,81,-99.99,,,-99.99,,2013-03-26 15:02:00,
2013-03-26 11:12:00,35.0,30.0,29.84,SSW,208,2.0,-999.0,81,-99.99,,,-99.99,,2013-03-26 15:12:00,
2013-03-26 11:22:00,36.0,30.0,29.85,West,265,1.0,-999.0,79,-99.99,,,-99.99,,2013-03-26 15:22:00,
2013-03-26 11:33:00,37.0,29.0,29.86,SW,224,2.0,-999.0,74,-99.99,,,-99.99,,2013-03-26 15:33:00,
2013-03-26 11:43:00,37.0,29.0,29.86,SW,224,2.0,-999.0,74,-99.99,,,-99.99,,2013-03-26 15:43:00,
2013-03-26 11:52:00,37.0,29.0,29.85,NW,316,5.0,-999.0,73,-99.99,,,-99.99,,2013-03-26 15:52:00,
2013-03-26 12:03:00,38.0,29.0,29.86,NNW,333,5.0,-999.0,71,-99.99,,,-99.99,,2013-03-26 16:03:00,
2013-03-26 12:13:00,38.0,29.0,29.86,NNW,333,5.0,-999.0,71,-99.99,,,-99.99,,2013-03-26 16:13:00,
2013-03-26 12:23:00,38.0,29.0,29.87,NW,320,4.0,-999.0,71,-99.99,,,-99.99,,2013-03-26 16:23:00,
2013-03-26 12:33:00,38.0,29.0,29.87,WNW,299,8.0,-999.0,70,-99.99,,,-99.99,,2013-03-26 16:33:00,
2013-03-26 12:42:00,38.0,29.0,29.87,WNW,299,8.0,-999.0,70,-99.99,,,-99.99,,2013-03-26 16:42:00,
2013-03-26 12:53:00,38.0,29.0,29.88,North,0,7.0,-999.0,70,-99.99,,,-99.99,,2013-03-26 16:53:00,
2013-03-26 13:03:00,38.0,29.0,29.87,North,0,5.0,-999.0,69,-99.99,,,-99.99,,2013-03-26 17:03:00,
2013-03-26 13:12:00,38.0,29.0,29.87,North,0,5.0,-999.0,69,-99.99,,,-99.99,,2013-03-26 17:12:00,
2013-03-26 13:23:00,38.0,28.0,29.87,NNW,336,9.0,-999.0,67,-99.99,,,-99.99,,2013-03-26 17:23:00,
2013-03-26 13:33:00,39.0,28.0,29.87,North,357,5.0,-999.0,64,-99.99,,,-99.99,,2013-03-26 17:33:00,
2013-03-26 13:42:00,39.0,28.0,29.87,North,357,5.0,-999.0,64,-99.99,,,-99.99,,2013-03-26 17:42:00,
2013-03-26 13:52:00,40.0,28.0,29.87,NW,326,5.0,-999.0,61,-99.99,,,-99.99,,2013-03-26 17:52:00,
2013-03-26 14:03:00,40.0,27.0,29.87,NW,320,5.0,-999.0,60,-99.99,,,-99.99,,2013-03-26 18:03:00,
2013-03-26 14:12:00,40.0,27.0,29.87,NW,320,5.0,-999.0,60,-99.99,,,-99.99,,2013-03-26 18:12:00,
2013-03-26 14:23:00,40.0,27.0,29.87,NW,322,7.0,-999.0,60,-99.99,,,-99.99,,2013-03-26 18:23:00,
2013-03-26 14:34:00,41.0,28.0,29.87,NW,309,4.0,-999.0,60,-99.99,,,-99.99,,2013-03-26 18:34:00,
2013-03-26 14:42:00,41.0,28.0,29.87,NW,309,4.0,-999.0,60,-99.99,,,-99.99,,2013-03-26 18:42:00,
2013-03-26 14:52:00,40.0,27.0,29.87,NW,318,9.0,-999.0,59,-99.99,,,-99.99,,2013-03-26 18:52:00,
2013-03-26 15:03:00,40.0,28.0,29.87,NW,306,7.0,-999.0,61,-99.99,,,-99.99,,2013-03-26 19:03:00,
2013-03-26 15:12:00,40.0,28.0,29.87,NW,306,7.0,-999.0,61,-99.99,,,-99.99,,2013-03-26 19:12:00,
2013-03-26 15:22:00,40.0,28.0,29.87,North,359,6.0,-999.0,62,-99.99,,,-99.99,,2013-03-26 19:22:00,
2013-03-26 15:32:00,41.0,28.0,29.87,WNW,296,8.0,-999.0,59,-99.99,,,-99.99,,2013-03-26 19:32:00,
2013-03-26 15:42:00,41.0,28.0,29.87,WNW,296,8.0,-999.0,59,-99.99,,,-99.99,,2013-03-26 19:42:00,
2013-03-26 15:53:00,40.0,28.0,29.88,NNW,347,8.0,-999.0,61,-99.99,,,-99.99,,2013-03-26 19:53:00,
2013-03-26 16:02:00,40.0,28.0,29.88,SW,234,1.0,-999.0,63,-99.99,,,-99.99,,2013-03-26 20:02:00,
2013-03-26 16:13:00,40.0,28.0,29.88,SW,234,1.0,-999.0,63,-99.99,,,-99.99,,2013-03-26 20:13:00,
2013-03-26 16:23:00,38.0,28.0,29.89,NNW,340,9.0,-999.0,66,-99.99,,,-99.99,,2013-03-26 20:23:00,
2013-03-26 16:32:00,38.0,28.0,29.89,NW,309,7.0,-999.0,67,-99.99,,,-99.99,,2013-03-26 20:32:00,
2013-03-26 16:43:00,38.0,28.0,29.89,NW,309,7.0,-999.0,67,-99.99,,,-99.99,,2013-03-26 20:43:00,
2013-03-26 16:52:00,38.0,28.0,29.89,NNW,339,5.0,-999.0,68,-99.99,,,-99.99,,2013-03-26 20:52:00,
2013-03-26 17:02:00,37.0,28.0,29.90,WNW,291,4.0,-999.0,69,-99.99,,,-99.99,,2013-03-26 21:02:00,
2013-03-26 17:12:00,37.0,28.0,29.90,WNW,291,4.0,-999.0,69,-99.99,,,-99.99,,2013-03-26 21:12:00,
2013-03-26 17:22:00,37.0,28.0,29.90,WNW,291,4.0,-999.0,69,-99.99,,,-99.99,,2013-03-26 21:22:00,
2013-03-26 17:33:00,37.0,28.0,29.90,WNW,291,4.0,-999.0,69,-99.99,,,-99.99,,2013-03-26 21:33:00,
2013-03-26 17:43:00,37.0,28.0,29.90,WNW,291,4.0,-999.0,69,-99.99,,,-99.99,,2013-03-26 21:43:00,
2013-03-26 18:23:00,35.0,28.0,29.91,NW,326,2.0,-999.0,76,-99.99,,,-99.99,,2013-03-26 22:23:00,
2013-03-26 18:33:00,35.0,28.0,29.91,NW,326,2.0,-999.0,76,-99.99,,,-99.99,,2013-03-26 22:33:00,
2013-03-26 18:42:00,35.0,28.0,29.91,NW,326,2.0,-999.0,76,-99.99,,,-99.99,,2013-03-26 22:42:00,
2013-03-26 18:52:00,35.0,28.0,29.91,NW,326,2.0,-999.0,76,-99.99,,,-99.99,,2013-03-26 22:52:00,
2013-03-26 19:22:00,35.0,30.0,29.93,West,263,2.0,-999.0,81,-99.99,,,-99.99,,2013-03-26 23:22:00,
2013-03-26 19:32:00,34.0,29.0,29.93,WNW,289,2.0,-999.0,81,-99.99,,,-99.99,,2013-03-26 23:32:00,
2013-03-26 19:42:00,34.0,29.0,29.93,WNW,289,2.0,-999.0,81,-99.99,,,-99.99,,2013-03-26 23:42:00,
2013-03-26 19:52:00,34.0,29.0,29.93,WSW,253,1.0,-999.0,82,-99.99,,,-99.99,,2013-03-26 23:52:00,
2013-03-26 20:02:00,34.0,29.0,29.94,WSW,257,1.0,-999.0,83,-99.99,,,-99.99,,2013-03-27 00:02:00,
2013-03-26 20:12:00,34.0,29.0,29.94,WSW,257,1.0,-999.0,83,-99.99,,,-99.99,,2013-03-27 00:12:00,
2013-03-26 20:22:00,34.0,30.0,29.94,SW,230,1.0,-999.0,84,-99.99,,,-99.99,,2013-03-27 00:22:00,
2013-03-26 20:33:00,34.0,30.0,29.95,NW,320,1.0,-999.0,85,-99.99,,,-99.99,,2013-03-27 00:33:00,
2013-03-26 20:42:00,34.0,30.0,29.95,NW,320,1.0,-999.0,85,-99.99,,,-99.99,,2013-03-27 00:42:00,
2013-03-26 20:52:00,33.0,29.0,29.95,WSW,243,2.0,-999.0,85,-99.99,,,-99.99,,2013-03-27 00:52:00,
2013-03-26 21:02:00,33.0,29.0,29.96,SW,227,2.0,-999.0,85,-99.99,,,-99.99,,2013-03-27 01:02:00,
2013-03-26 21:12:00,33.0,29.0,29.96,SW,227,2.0,-999.0,85,-99.99,,,-99.99,,2013-03-27 01:12:00,
2013-03-26 21:23:00,33.0,29.0,29.96,WNW,284,1.0,-999.0,86,-99.99,,,-99.99,,2013-03-27 01:23:00,
2013-03-26 21:33:00,33.0,29.0,29.96,SW,234,1.0,-999.0,86,-99.99,,,-99.99,,2013-03-27 01:33:00,
2013-03-26 21:42:00,33.0,29.0,29.96,SW,234,1.0,-999.0,86,-99.99,,,-99.99,,2013-03-27 01:42:00,
2013-03-26 21:52:00,33.0,29.0,29.96,South,189,1.0,-999.0,86,-99.99,,,-99.99,,2013-03-27 01:52:00,
2013-03-26 22:03:00,32.0,28.0,29.97,SSW,195,0.0,-999.0,86,-99.99,,,-99.99,,2013-03-27 02:03:00,
2013-03-26 22:12:00,32.0,28.0,29.97,SSW,195,0.0,-999.0,86,-99.99,,,-99.99,,2013-03-27 02:12:00,
2013-03-26 22:22:00,32.0,28.0,29.97,WSW,256,1.0,-999.0,86,-99.99,,,-99.99,,2013-03-27 02:22:00,
2013-03-26 22:32:00,32.0,28.0,29.98,NW,312,1.0,-999.0,86,-99.99,,,-99.99,,2013-03-27 02:32:00,
2013-03-26 22:42:00,32.0,28.0,29.98,NW,312,1.0,-999.0,86,-99.99,,,-99.99,,2013-03-27 02:42:00,
2013-03-26 22:52:00,32.0,28.0,29.98,WSW,240,0.0,-999.0,86,-99.99,,,-99.99,,2013-03-27 02:52:00,
2013-03-26 23:02:00,32.0,28.0,29.98,WNW,287,0.0,-999.0,86,-99.99,,,-99.99,,2013-03-27 03:02:00,
2013-03-26 23:12:00,32.0,28.0,29.98,WNW,287,0.0,-999.0,86,-99.99,,,-99.99,,2013-03-27 03:12:00,
2013-03-26 23:22:00,32.0,29.0,29.98,WNW,291,1.0,-999.0,87,-99.99,,,-99.99,,2013-03-27 03:22:00,
2013-03-26 23:33:00,32.0,29.0,29.98,SW,226,1.0,-999.0,87,-99.99,,,-99.99,,2013-03-27 03:33:00,
2013-03-26 23:42:00,32.0,29.0,29.98,SW,226,1.0,-999.0,87,-99.99,,,-99.99,,2013-03-27 03:42:00,
2013-03-26 23:52:00,32.0,29.0,29.97,SW,236,1.0,-999.0,87,-99.99,,,-99.99,,2013-03-27 03:52:00,